DW9104 Weather Reports


time (UTC)temp
C
wind
direction
speed
KPH
gust
KPH
rain 1hr
cm
rain 24hr
cm
rain mn
cm
humidity
%
barometer
mb
20260508064405 11 89 0.0 0.0 0.00 0.00 0.00 78 1016.0
20260508063905 11 89 0.0 1.6 0.00 0.00 0.00 78 1016.0
20260508063405 11 102 0.0 0.0 0.00 0.00 0.00 81 1015.9
20260508062905 11 102 0.0 0.0 0.00 0.00 0.00 82 1015.9
20260508061404 10 102 0.0 0.0 0.00 0.00 0.00 84 1015.8
20260508060405 10 102 0.0 1.6 0.00 0.00 0.00 84 1015.8
20260508055404 10 104 0.0 0.0 0.00 0.00 0.00 84 1015.8
20260508054905 10 106 0.0 0.0 0.00 0.00 0.00 85 1015.7
20260508054405 10 106 0.0 0.0 0.00 0.00 0.00 84 1015.7
20260508053905 10 106 0.0 0.0 0.00 0.00 0.00 85 1015.6
20260508053405 10 106 0.0 0.0 0.00 0.00 0.00 85 1015.6
20260508052905 10 106 0.0 0.0 0.00 0.00 0.00 84 1015.5
20260508052405 10 106 0.0 0.0 0.00 0.00 0.00 84 1015.4
20260508051905 9 106 0.0 0.0 0.00 0.00 0.00 84 1015.4
20260508051405 9 106 0.0 1.6 0.00 0.00 0.00 84 1015.3
20260508050905 9 106 0.0 0.0 0.00 0.00 0.00 84 1015.3
20260508050404 9 106 0.0 1.6 0.00 0.00 0.00 84 1015.3
20260508044905 9 107 0.0 1.6 0.00 0.00 0.00 83 1015.4
20260508044405 9 107 0.0 0.0 0.00 0.00 0.00 83 1015.4
20260508043905 9 107 0.0 3.2 0.00 0.00 0.00 83 1015.4
20260508043405 9 98 0.0 3.2 0.00 0.00 0.00 83 1015.3
20260508042905 10 92 0.0 1.6 0.00 0.00 0.00 82 1015.4
20260508042405 10 92 0.0 1.6 0.00 0.00 0.00 82 1015.4
20260508041905 10 91 0.0 4.8 0.00 0.00 0.00 82 1015.3
20260508040905 10 123 0.0 1.6 0.00 0.00 0.00 81 1015.3
20260508035905 10 123 0.0 1.6 0.00 0.00 0.00 81 1015.2
20260508034905 10 119 0.0 1.6 0.00 0.00 0.00 80 1015.3
20260508034405 10 120 0.0 0.0 0.00 0.00 0.00 79 1015.2
20260508033905 10 120 0.0 0.0 0.00 0.00 0.00 79 1015.2
20260508033405 10 120 0.0 0.0 0.00 0.00 0.00 79 1015.2
20260508032904 10 120 0.0 0.0 0.00 0.00 0.00 78 1015.2
20260508032405 10 120 0.0 0.0 0.00 0.00 0.00 78 1015.2
20260508031904 10 120 0.0 3.2 0.00 0.00 0.00 78 1015.2
20260508031405 10 123 0.0 1.6 0.00 0.00 0.00 78 1015.1
20260508030905 10 109 0.0 3.2 0.00 0.00 0.00 78 1015.3
20260508030405 10 93 0.0 3.2 0.00 0.00 0.00 78 1015.3
20260508025904 10 116 0.0 3.2 0.00 0.00 0.00 78 1015.3
20260508025405 10 108 0.0 3.2 0.00 0.00 0.00 78 1015.3
20260508024904 10 108 0.0 1.6 0.00 0.00 0.00 78 1015.3
20260508024404 10 107 0.0 1.6 0.00 0.00 0.00 78 1015.3
20260508023905 10 108 0.0 1.6 0.00 0.00 0.00 79 1015.3
20260508023404 10 108 0.0 4.8 0.00 0.00 0.00 80 1015.3
20260508022905 10 101 0.0 1.6 0.00 0.00 0.00 81 1015.3
20260508022405 10 101 0.0 0.0 0.00 0.00 0.00 81 1015.2
20260508021905 10 101 0.0 1.6 0.00 0.00 0.00 82 1015.2
20260508020904 10 101 0.0 0.0 0.00 0.00 0.00 83 1015.2
20260508020404 10 101 0.0 0.0 0.00 0.00 0.00 83 1015.2
20260508015405 10 101 0.0 0.0 0.00 0.00 0.00 83 1015.2
20260508014905 10 101 0.0 0.0 0.00 0.00 0.00 83 1015.2
20260508013904 10 101 0.0 0.0 0.00 0.00 0.00 82 1015.1
20260508013405 10 101 0.0 0.0 0.00 0.00 0.00 82 1015.1
20260508012905 10 101 0.0 0.0 0.00 0.00 0.00 82 1015.2
20260508012405 10 101 0.0 0.0 0.00 0.00 0.00 81 1015.2
20260508011905 10 101 0.0 0.0 0.00 0.00 0.00 81 1015.3
20260508011404 10 101 0.0 0.0 0.00 0.00 0.00 82 1015.3
20260508010904 10 101 0.0 0.0 0.00 0.00 0.00 82 1015.2
20260508010404 10 101 0.0 1.6 0.00 0.00 0.00 82 1015.2
20260508005905 10 102 0.0 1.6 0.00 0.00 0.00 82 1015.2
20260508004904 10 103 0.0 0.0 0.00 0.00 0.00 82 1015.3
20260508004404 11 103 0.0 0.0 0.00 0.00 0.00 82 1015.3
20260508003405 10 103 0.0 0.0 0.00 0.00 0.00 82 1015.4
20260508002904 11 103 0.0 0.0 0.00 0.00 0.00 81 1015.3
20260508001905 11 103 0.0 0.0 0.00 0.00 0.00 81 1015.3
20260508001405 11 103 0.0 0.0 0.00 0.00 0.00 81 1015.4
20260508000904 11 103 0.0 1.6 0.00 0.00 0.00 80 1015.3
20260508000405 11 103 0.0 1.6 0.00 0.00 0.00 80 1015.3
20260507235905 11 102 0.0 1.6 0.00 0.00 0.00 80 1015.3
20260507234904 11 102 0.0 0.0 0.00 0.00 0.00 80 1015.3
20260507234404 11 101 0.0 0.0 0.00 0.00 0.00 80 1015.3
20260507233905 11 101 0.0 0.0 0.00 0.00 0.00 80 1015.3
20260507233404 11 101 0.0 0.0 0.00 0.00 0.00 80 1015.3
20260507232905 11 102 0.0 1.6 0.00 0.00 0.00 80 1015.3
20260507231904 11 101 0.0 0.0 0.00 0.00 0.00 80 1015.3
20260507231405 11 101 0.0 0.0 0.00 0.00 0.00 79 1015.3
20260507230904 11 101 0.0 1.6 0.00 0.00 0.00 79 1015.3
20260507230404 11 101 0.0 0.0 0.00 0.00 0.00 78 1015.3
20260507225404 11 101 0.0 0.0 0.00 0.00 0.00 78 1015.4
20260507224905 11 101 0.0 0.0 0.00 0.00 0.00 77 1015.4
20260507224404 11 101 0.0 0.0 0.00 0.00 0.00 77 1015.4
20260507223904 11 101 0.0 0.0 0.00 0.00 0.00 77 1015.3
20260507223404 11 101 0.0 0.0 0.00 0.00 0.00 77 1015.3
20260507222904 11 101 0.0 0.0 0.00 0.00 0.00 77 1015.3
20260507222405 11 101 0.0 0.0 0.00 0.00 0.00 77 1015.3
20260507221905 11 101 0.0 1.6 0.00 0.00 0.00 77 1015.3
20260507221409 11 101 0.0 0.0 0.00 0.00 0.00 77 1015.3
20260507220904 11 101 0.0 1.6 0.00 0.00 0.00 77 1015.3
20260507220405 11 102 0.0 0.0 0.00 0.00 0.00 76 1015.3
20260507215904 11 101 1.6 3.2 0.00 0.00 0.00 76 1015.3
20260507215404 11 101 0.0 0.0 0.00 0.00 0.00 76 1015.3
20260507214904 11 102 0.0 0.0 0.00 0.00 0.00 76 1015.3
20260507214404 11 102 0.0 0.0 0.00 0.00 0.00 76 1015.2
20260507213905 11 101 0.0 1.6 0.00 0.00 0.00 76 1015.2
20260507213404 11 101 0.0 0.0 0.00 0.00 0.00 76 1015.2
20260507212905 11 102 0.0 0.0 0.00 0.00 0.00 76 1015.2
20260507212404 11 101 0.0 1.6 0.00 0.00 0.00 76 1015.1
20260507211904 11 101 0.0 0.0 0.00 0.00 0.00 76 1015.1
20260507211404 11 107 0.0 1.6 0.00 0.00 0.00 76 1015.1
20260507210904 11 107 0.0 0.0 0.00 0.00 0.00 76 1015.1
20260507210404 11 107 0.0 1.6 0.00 0.00 0.00 76 1015.0
20260507205905 11 103 0.0 0.0 0.00 0.00 0.00 76 1015.0
20260507204904 11 103 0.0 1.6 0.00 0.00 0.00 76 1015.0
20260507204405 11 103 0.0 0.0 0.00 0.00 0.00 77 1015.0
20260507203905 11 102 0.0 0.0 0.00 0.00 0.00 77 1014.9
20260507202905 11 103 0.0 0.0 0.00 0.00 0.00 77 1014.8
20260507202404 11 103 0.0 0.0 0.00 0.00 0.00 77 1014.7
20260507201905 11 103 0.0 0.0 0.00 0.00 0.00 76 1014.7
20260507201404 11 103 0.0 0.0 0.00 0.00 0.00 76 1014.7
20260507200905 11 103 0.0 1.6 0.00 0.00 0.00 76 1014.7
20260507200405 11 103 0.0 1.6 0.00 0.00 0.00 75 1014.7
20260507195904 12 103 0.0 1.6 0.00 0.00 0.00 75 1014.6
20260507194906 12 129 0.0 1.6 0.00 0.00 0.00 75 1014.6
20260507194404 12 131 0.0 3.2 0.00 0.00 0.00 75 1014.5
20260507193904 12 121 1.6 4.8 0.00 0.00 0.00 74 1014.5
20260507193404 12 101 0.0 0.0 0.00 0.00 0.00 74 1014.5
20260507192904 12 101 0.0 4.8 0.00 0.00 0.00 73 1014.5
20260507192405 12 131 0.0 0.0 0.00 0.00 0.00 73 1014.5
20260507191905 12 131 0.0 4.8 0.00 0.00 0.00 72 1014.5
20260507191404 12 102 0.0 1.6 0.00 0.00 0.00 72 1014.4
20260507190904 12 102 0.0 1.6 0.00 0.00 0.00 71 1014.4
20260507190404 12 94 0.0 1.6 0.00 0.00 0.00 71 1014.4
20260507185904 12 122 0.0 1.6 0.00 0.00 0.00 70 1014.4
20260507185404 12 122 0.0 1.6 0.00 0.00 0.00 70 1014.3
20260507184904 12 122 0.0 1.6 0.00 0.00 0.00 69 1014.3
20260507184404 12 122 0.0 1.6 0.00 0.00 0.00 69 1014.3
20260507183404 13 127 0.0 1.6 0.00 0.00 0.00 67 1014.3
20260507182404 13 126 0.0 3.2 0.00 0.00 0.00 64 1014.2
20260507181904 13 99 0.0 8.0 0.00 0.00 0.00 60 1014.2
20260507181404 13 131 1.6 4.8 0.00 0.00 0.00 60 1014.1
20260507180904 13 130 1.6 9.7 0.00 0.00 0.00 59 1014.0
20260507180404 13 108 1.6 4.8 0.00 0.00 0.00 58 1014.0
20260507175904 13 98 0.0 3.2 0.00 0.00 0.00 57 1014.0
20260507175404 13 115 3.2 8.0 0.00 0.00 0.00 57 1014.0
20260507174904 13 98 0.0 3.2 0.00 0.00 0.00 57 1014.0
20260507174404 13 115 3.2 11.3 0.00 0.00 0.00 55 1014.1
20260507173904 13 120 0.0 4.8 0.00 0.00 0.00 55 1014.1
20260507173403 14 132 0.0 4.8 0.00 0.00 0.00 55 1014.1
20260507172904 14 147 1.6 4.8 0.00 0.00 0.00 54 1014.0
20260507172404 14 117 1.6 9.7 0.00 0.00 0.00 53 1014.0
20260507171404 14 129 1.6 8.0 0.00 0.00 0.00 53 1014.0
20260507170905 14 103 1.6 8.0 0.00 0.00 0.00 52 1013.9
20260507170404 14 123 1.6 4.8 0.00 0.00 0.00 53 1014.0
20260507165404 15 104 3.2 9.7 0.00 0.00 0.00 53 1013.9
20260507164904 15 92 3.2 12.9 0.00 0.00 0.00 53 1013.9
20260507164404 15 124 0.0 4.8 0.00 0.00 0.00 53 1013.9
20260507163904 15 131 0.0 4.8 0.00 0.00 0.00 52 1013.9
20260507163404 15 106 3.2 9.7 0.00 0.00 0.00 51 1013.8
20260507162904 15 120 1.6 8.0 0.00 0.00 0.00 52 1013.9
20260507162404 15 118 3.2 12.9 0.00 0.00 0.00 51 1013.9
20260507161904 15 133 0.0 9.7 0.00 0.00 0.00 51 1013.8
20260507161403 15 83 1.6 8.0 0.00 0.00 0.00 52 1013.8
20260507160404 16 99 1.6 8.0 0.00 0.00 0.00 51 1013.8
20260507155904 16 120 1.6 9.7 0.00 0.00 0.00 50 1013.8
20260507154904 16 135 0.0 3.2 0.00 0.00 0.00 50 1013.8
20260507154404 16 39 0.0 4.8 0.00 0.00 0.00 49 1013.8
20260507153404 16 88 0.0 4.8 0.00 0.00 0.00 49 1013.9
20260507152903 16 19 0.0 8.0 0.00 0.00 0.00 50 1013.9
20260507151903 16 115 3.2 11.3 0.00 0.00 0.00 48 1014.0
20260507150904 16 95 0.0 9.7 0.00 0.00 0.00 49 1014.0
20260507150404 16 116 1.6 4.8 0.00 0.00 0.00 49 1014.0
20260507145903 16 132 0.0 4.8 0.00 0.00 0.00 49 1014.0
20260507145404 16 139 1.6 4.8 0.00 0.00 0.00 48 1014.0
20260507144904 16 133 1.6 8.0 0.00 0.00 0.00 49 1014.1
20260507144403 16 127 0.0 3.2 0.00 0.00 0.00 49 1014.1
20260507143904 16 96 3.2 8.0 0.00 0.00 0.00 48 1014.1
20260507142904 15 99 0.0 4.8 0.00 0.00 0.00 49 1014.1
20260507142406 16 105 1.6 12.9 0.00 0.00 0.00 47 1014.2
20260507141905 16 106 1.6 4.8 0.00 0.00 0.00 48 1014.3
20260507141405 16 108 1.6 9.7 0.00 0.00 0.00 47 1014.3
20260507140906 16 97 0.0 3.2 0.00 0.00 0.00 51 1014.4
20260507140406 16 129 1.6 4.8 0.00 0.00 0.00 49 1014.5
20260507135906 16 114 0.0 4.8 0.00 0.00 0.00 50 1014.5
20260507134906 15 119 3.2 9.7 0.00 0.00 0.00 52 1014.6
20260507133905 16 106 3.2 8.0 0.00 0.00 0.00 49 1014.7
20260507132906 15 38 1.6 9.7 0.00 0.00 0.00 49 1014.5
20260507131906 16 139 1.6 9.7 0.00 0.00 0.00 51 1014.7
20260507131406 16 136 3.2 9.7 0.00 0.00 0.00 50 1014.7
20260507130905 16 112 0.0 4.8 0.00 0.00 0.00 48 1014.7
20260507130405 15 46 1.6 4.8 0.00 0.00 0.00 50 1014.9
20260507125906 15 113 1.6 11.3 0.00 0.00 0.00 51 1014.8
20260507125405 15 98 3.2 11.3 0.00 0.00 0.00 50 1014.8
20260507124905 15 105 0.0 3.2 0.00 0.00 0.00 53 1014.9
20260507124406 15 119 1.6 8.0 0.00 0.00 0.00 51 1015.0
20260507123905 15 326 3.2 11.3 0.00 0.00 0.00 51 1015.0
20260507123405 15 78 0.0 8.0 0.00 0.00 0.00 51 1015.0
20260507122406 15 117 1.6 4.8 0.00 0.00 0.00 54 1014.9
20260507121905 15 328 1.6 4.8 0.00 0.00 0.00 54 1015.0
20260507120905 15 115 1.6 4.8 0.00 0.00 0.00 57 1015.1
20260507120405 14 110 1.6 8.0 0.00 0.00 0.00 56 1015.2
20260507115905 14 326 1.6 4.8 0.00 0.00 0.00 57 1015.3
20260507115406 14 73 1.6 4.8 0.00 0.00 0.00 60 1015.3
20260507114905 14 94 0.0 4.8 0.00 0.00 0.00 64 1015.3
20260507113905 13 126 0.0 4.8 0.00 0.00 0.00 64 1015.4
20260507113405 13 11 1.6 9.7 0.00 0.00 0.00 62 1015.5
20260507112906 13 112 1.6 4.8 0.00 0.00 0.00 64 1015.5
20260507112405 13 19 1.6 9.7 0.00 0.00 0.00 66 1015.5
20260507111905 13 105 1.6 4.8 0.00 0.00 0.00 66 1015.6
20260507111406 12 351 1.6 4.8 0.00 0.00 0.00 68 1015.6
20260507110405 12 132 1.6 4.8 0.00 0.00 0.00 67 1015.7
20260507105405 12 130 0.0 4.8 0.00 0.00 0.00 67 1015.9
20260507104906 12 108 1.6 4.8 0.00 0.00 0.00 67 1015.9
20260507104405 12 127 0.0 3.2 0.00 0.00 0.00 68 1015.9
20260507103405 12 131 1.6 4.8 0.00 0.00 0.00 68 1015.9
20260507102907 12 116 1.6 4.8 0.00 0.00 0.00 69 1015.9
20260507102405 11 106 0.0 3.2 0.00 0.00 0.00 70 1016.0
20260507101906 11 122 0.0 3.2 0.00 0.00 0.00 71 1016.0
20260507100905 11 15 0.0 4.8 0.00 0.00 0.00 72 1016.0
20260507100405 11 101 1.6 4.8 0.00 0.00 0.00 73 1016.0
20260507095905 11 113 1.6 4.8 0.00 0.00 0.00 74 1015.9
20260507095405 11 124 0.0 8.0 0.00 0.00 0.00 74 1015.9
20260507094905 11 95 0.0 4.8 0.00 0.00 0.00 75 1015.9
20260507094405 11 356 0.0 4.8 0.00 0.00 0.00 74 1015.9
20260507093905 11 101 0.0 1.6 0.00 0.00 0.00 75 1015.9
20260507093405 11 126 0.0 3.2 0.00 0.00 0.00 76 1015.9
20260507092905 11 117 0.0 3.2 0.00 0.00 0.00 77 1015.9
20260507092405 11 323 0.0 3.2 0.00 0.00 0.00 76 1015.9
20260507091905 10 113 0.0 4.8 0.00 0.00 0.00 78 1016.0
20260507091405 10 179 1.6 4.8 0.00 0.00 0.00 78 1015.9
20260507090905 10 101 0.0 3.2 0.00 0.00 0.00 79 1016.0
20260507090405 10 117 0.0 1.6 0.00 0.00 0.00 81 1016.0
20260507085905 10 91 0.0 1.6 0.00 0.00 0.00 82 1015.9
20260507085406 9 108 0.0 3.2 0.00 0.00 0.00 82 1016.0
20260507084907 9 110 0.0 1.6 0.00 0.00 0.00 82 1016.0
20260507084405 9 105 0.0 1.6 0.00 0.00 0.00 83 1016.1
20260507083905 9 105 0.0 1.6 0.00 0.00 0.00 83 1016.1
20260507083405 9 117 0.0 3.2 0.00 0.00 0.00 84 1016.1
20260507082905 8 101 0.0 3.2 0.00 0.00 0.00 84 1016.1
20260507082405 8 101 0.0 1.6 0.00 0.00 0.00 85 1016.1
20260507081405 8 9 0.0 3.2 0.00 0.00 0.00 86 1016.0
20260507080905 8 354 0.0 3.2 0.00 0.00 0.00 86 1016.0
20260507080405 8 323 0.0 3.2 0.00 0.00 0.00 86 1016.0
20260507075905 8 38 0.0 1.6 0.00 0.00 0.00 87 1016.0
20260507075405 8 65 0.0 1.6 0.00 0.00 0.00 87 1016.0
20260507074905 8 109 0.0 3.2 0.00 0.00 0.00 87 1016.0
20260507074405 8 122 0.0 3.2 0.00 0.00 0.00 87 1016.0
20260507073905 8 94 0.0 1.6 0.00 0.00 0.00 88 1016.1
20260507073405 8 94 0.0 1.6 0.00 0.00 0.00 88 1016.0
20260507072905 7 21 0.0 1.6 0.00 0.00 0.00 88 1016.0
20260507071405 7 140 0.0 0.0 0.00 0.00 0.00 90 1016.0
20260507070905 7 140 0.0 1.6 0.00 0.00 0.00 90 1015.9
20260507070412 7 139 0.0 1.6 0.00 0.00 0.00 90 1015.9
20260507065905 7 344 0.0 1.6 0.00 0.00 0.00 91 1015.9
20260507065405 7 12 0.0 1.6 0.00 0.00 0.00 91 1015.9